Regional Weather Roundup
Issued by NWS

Home | Current Version | Previous Version | Text Only | Print | Product List | Glossary Off
Versions: 1 2 3 4 5 6 7 8 9 10 11 12 13 14 15 16 17 18 19 20 21 22 23 24 25 26 27 28 29 30 31 32 33 34 35 36 37 38 39 40 41 42 43 44 45 46 47 48 49 50

463
ASUS43 KMPX 230410
RWRMN
WEATHER ROUNDUP FOR MINNESOTA
NATIONAL WEATHER SERVICE TWIN CITIES/CHANHASSEN MN
1100 PM CDT MON MAY 22 2017


NOTE: "FAIR" INDICATES FEW OR NO CLOUDS BELOW 12,000 FEET WITH NO
SIGNIFICANT WEATHER AND/OR OBSTRUCTIONS TO VISIBILITY. N/A MEANS
CURRENT SKY AND/OR WEATHER CONDITIONS ARE NOT AVAILABLE.

MNZ060>063-068>070-230500-
   Twin Cities Metro

CITY           SKY/WX    TMP DP  RH WIND       PRES   REMARKS
TWIN CITIES    CLOUDY    58  42  55 N5        29.83S
ST PAUL        CLOUDY    56  45  66 N5        29.84S
CRYSTAL        CLOUDY    55  39  54 NW6       29.83S
BLAINE         MOCLDY    55  45  67 NW3       29.84S
LAKEVILLE      DRIZZLE   54  46  76 W3        29.84S
EDEN PRAIRIE   CLOUDY    57  44  62 NW6       29.83S
SOUTH ST PAUL  CLOUDY    58  43  57 N3        29.83S
LAKE ELMO      CLOUDY    54  46  76 CALM      29.84S
$$
MNZ001>005-007-008-013>017-022>024-027-028-230500-
   Northwest Minnesota

CITY           SKY/WX    TMP DP  RH WIND       PRES   REMARKS
BEMIDJI        CLOUDY    45  44  97 NW5       29.86S
HALLOCK        CLOUDY    48  46  93 N12G17    29.94S
ROSEAU         CLOUDY    48  43  81 N9        29.91R
WARROAD        CLOUDY    46  43  87 N9G16     29.91R
THIEF RVR FALL CLOUDY    48  44  86 N13       29.91R
CROOKSTON      CLOUDY    48  46  93 N9        29.91S
FOSSTON        DRIZZLE   45  43  93 N8        29.89R
DETROIT LAKES  CLOUDY    45  45 100 NW6       29.88F
MOORHEAD       CLOUDY    48  46  93 NW10      29.90S
PARK RAPIDS    CLOUDY    46  42  86 NW5       29.86R
MAHNOMEN       CLOUDY    46  45  96 NW7       29.88S
$$
MNZ006-009>011-018-025>026-230500-
   North Central Minnesota

CITY           SKY/WX    TMP DP  RH WIND       PRES   REMARKS
BAUDETTE       CLOUDY    47  45  93 N12       29.87R
FLAG ISLAND    CLOUDY    48  45  87 N20G26    29.90R
INTL FALLS     CLOUDY    48  45  89 N8        29.83S
WASKISH        CLOUDY    46  45  93 N5        29.86R
BIG FORK       CLOUDY    46  45  93 CALM      29.84S
LONGVILLE      DRIZZLE   45  43  93 CALM      29.85S
GRAND RAPIDS   CLOUDY    45  41  86 N6        29.86R
CRANE LAKE     CLOUDY    43  43 100 CALM      29.85S
ORR            CLOUDY    45  43  93 CALM      29.81S
COOK           CLOUDY    45  43  93 CALM      29.84S
WALKER         CLOUDY    44  43  97 CALM      29.85S
$$
MNZ012-019>021-037-230500-
   Northeast Minnesota

CITY           SKY/WX    TMP DP  RH WIND       PRES   REMARKS
DULUTH         CLOUDY    48  44  86 NW5       29.82S
ELY            CLOUDY    45  45 100 CALM      29.83S
HIBBING        CLOUDY    42  41  96 N5        29.83S
EVELETH        CLOUDY    45  39  81 CALM      29.84S
DULUTH HARBOR  CLOUDY    48  45  87 N3        29.84R
TWO HARBORS    CLOUDY    52  46  82 CALM      29.81S
SILVER BAY     CLOUDY    48  46  93 CALM      29.81R
GRAND MARAIS     N/A     47  45  93 W5        29.82R
G MARAIS ARPRT CLOUDY    43  39  87 CALM      29.83R
$$
MNZ029>031-032-039>041-046>048-054>057-064-230500-
   West Central Minnesota

CITY           SKY/WX    TMP DP  RH WIND       PRES   REMARKS
FERGUS FALLS   CLOUDY    46  46 100 N7        29.88S
WHEATON        DRIZZLE   48  45  87 NW5       29.92S
MORRIS         CLOUDY    48  45  87 NW13      29.88S
ALEXANDRIA     LGT RAIN  47  44  90 N8        29.88R
ELBOW LAKE     MOCLDY    46  45  94 W9        29.89S
WADENA         CLOUDY    43  43 100 NW3       29.86S
GLENWOOD       CLOUDY    48  43  81 W5        29.87S
APPLETON       MOCLDY    52  43  71 N10       29.89S
BENSON         CLOUDY    50  43  76 N10       29.90S
ORTONVILLE     CLOUDY    52  41  66 NW10G16   29.90S
MADISON        CLOUDY    54  46  76 NW6       29.90S
WILLMAR        CLOUDY    52  45  76 NW8       29.88F
$$
MNZ033>034-036-042>043-049>051-058-059-230500-
   Central Minnesota

CITY           SKY/WX    TMP DP  RH WIND       PRES   REMARKS
ST CLOUD       MOCLDY    47  42  83 NW5       29.84S
SAUK CENTRE    CLOUDY    47  42  85 CALM      29.86F
PAYNESVILLE    MOCLDY    47  43  87 CALM      29.86F
AITKIN         CLOUDY    46  45  93 CALM      29.83S
PINE RIVER     CLOUDY    45  45 100 N6        29.89R
BRAINERD       CLOUDY    48  43  82 N5        29.85R
STAPLES        DRIZZLE   45  41  87 NW7       29.86S
LONG PRAIRIE   CLOUDY    46  41  81 W3        29.87S
LITTLE FALLS   CLOUDY    46  41  81 CALM      29.85S
LITCHFIELD     MOCLDY    54  45  71 NW3       29.86S
BUFFALO        CLOUDY    54  41  62 W6        29.85F
MAPLE LAKE     CLOUDY    52  44  74 W3        29.86S
HUTCHINSON     CLOUDY    54  46  72 NW5       29.87S
$$
MNZ037-044-045-052-053-230500-
   East Central Minnesota

CITY           SKY/WX    TMP DP  RH WIND       PRES   REMARKS
PRINCETON      PTCLDY    46  43  87 CALM      29.85S
MORA           CLEAR     45  43  93 CALM      29.85S
CAMBRIDGE      PTCLDY    46  39  76 CALM      29.83S
RUSH CITY      MOCLDY    44  42  93 CALM      29.84R
MOOSE LAKE     CLOUDY    45  41  87 CALM      29.83R
HINCKLEY       CLOUDY    48  46  93 CALM      29.83F
CLOQUET        CLOUDY    48  43  81 CALM      29.83S
MCGREGOR       CLOUDY    46  43  87 CALM      29.84S
$$
MNZ071>073-080-081-089-090-097-098-230500-
   Southwest Minnesota

CITY           SKY/WX    TMP DP  RH WIND       PRES   REMARKS
MONTEVIDEO     CLOUDY    52  43  71 NW3       29.89S
CANBY          CLOUDY    51  44  78 CALM      29.92R
MARSHALL       CLOUDY    50  46  86 NW6       29.90S
REDWOOD FALLS  CLOUDY    53  43  68 NW7       29.87S
OLIVIA         CLOUDY    50  43  76 NW5       29.86F
PIPESTONE      CLOUDY    50  45  81 NW5       29.91F
WINDOM         RAIN      52  48  87 NW10      29.89S
WORTHINGTON    LGT RAIN  49  47  93 NW9       29.91R
JACKSON        DRIZZLE   50  46  87 NW14      29.89S
TRACY          CLOUDY    51  49  93 W6        29.90S
SLAYTON        CLOUDY    49  47  94 W6        29.91F
$$
MNZ065>067-074>077-082>085-091>093-230500-
   South Central Minnesota

CITY           SKY/WX    TMP DP  RH WIND       PRES   REMARKS
MANKATO        LGT RAIN  52  50  93 NW3       29.87S
NEW ULM        CLOUDY    52  48  87 W7        29.86F
ST JAMES       CLOUDY    52  50  93 W9        29.88R
FAIRMONT       LGT RAIN  52  47  83 N6        29.87S
GLENCOE        CLOUDY    56  47  73 NW5       29.84F
FARIBAULT      LGT RAIN  54  52  94 W6        29.85F
OWATONNA       CLOUDY    54  50  87 NW7       29.85R
WASECA         LGT RAIN  52  50  93 NW15      29.86S
ALBERT LEA     CLOUDY    54  52  94 N6        29.84S
$$
MNZ078>079-086>088-094>096-230500-
   Southeast Minnesota

CITY           SKY/WX    TMP DP  RH WIND       PRES   REMARKS
ROCHESTER      LGT RAIN  52  51  97 N3        29.83F
RED WING       DRIZZLE   55  46  71 W5        29.82S
STANTON        LGT RAIN  55  52  89 SW3       29.83S
DODGE CENTER   CLOUDY    52  48  87 NW6       29.83F
WINONA         RAIN      55  50  82 SW6       29.82R
AUSTIN         MOCLDY    52  48  87 N3        29.82S
PRESTON        CLOUDY    52  50  94 CALM      29.82F FOG
$$
ABBREVIATIONS USED IN REMARKS
   TC - TEMPERATURES IN CELSIUS
  WCI - WIND CHILL INDEX
   HX - HEAT INDEX
  VSB - VISIBILITY
$$




USA.gov is the U.S. government's official web portal to all federal, state and local government web resources and services.